Temperature
22 19 19 19 20 20 21 20 20 20 21 20 19 19 18 19 19 18 18 19 19 19 19 19 19 19 18 18 18 18 17 17 17 17 16 16 16 16 16 16 16 16 16 16
19 19 20 21 21 21 21 20 20 20 21 21 19 19 19 19 19 19 19 19 19 19 19 19 19 19 18 18 18 18 17 17 17 17 16 16 16 16 16 16 16 16 16 16
19 20 22 22 22 22 21 20 20 20 20 21 20 19 19 18 19 19 19 19 19 19 19 19 19 19 18 18 18 18 17 17 17 17 16 16 16 16 16 16 16 16 16 16
20 21 22 22 22 21 20 22 21 20 19 18 19 17 18 18 18 18 19 19 19 19 19 19 19 19 18 18 18 18 17 17 17 17 16 16 16 16 16 16 16 16 16 16
20 21 22 21 22 22 21 22 21 20 19 18 18 18 17 17 17 18 18 19 19 19 19 19 19 19 19 18 18 18 17 17 17 17 16 16 16 16 16 16 15 16 16 16
20 22 22 22 22 22 22 21 19 18 17 17 18 18 17 17 18 18 18 19 19 19 19 19 19 19 19 18 18 18 18 17 17 17 17 16 16 16 16 16 16 16 16 16
20 21 22 22 21 21 20 18 17 17 17 17 18 18 18 19 19 19 19 19 19 19 19 19 19 19 19 18 18 18 18 17 17 17 17 16 16 16 16 16 16 16 16 16
18 19 21 22 21 20 19 18 17 17 17 17 18 18 19 20 20 20 20 20 20 19 19 19 19 19 19 18 18 18 18 18 17 17 17 16 16 16 16 16 16 16 16 16
18 18 21 22 22 21 20 18 18 17 18 17 18 18 19 20 19 19 20 19 19 19 19 19 19 19 19 19 18 18 18 18 17 17 17 17 16 16 16 16 16 16 16 16
19 19 20 21 21 21 20 19 16 17 17 17 18 18 18 19 19 19 19 19 19 19 19 19 19 19 19 19 18 18 18 18 17 17 17 17 17 16 16 16 16 16 16 16
19 18 19 20 20 19 20 19 17 16 16 16 17 18 19 19 19 18 19 19 19 19 19 19 19 19 19 19 18 18 18 18 17 17 17 17 17 17 16 16 16 16 16 16
18 16 17 18 19 20 20 19 17 17 17 16 16 17 20 19 19 19 19 20 20 20 20 20 19 19 19 19 18 18 18 18 17 17 17 17 17 17 16 16 16 16 16 16
18 16 16 17 18 19 20 19 18 17 16 16 16 18 20 19 19 20 20 20 20 20 20 19 19 19 19 19 18 18 18 18 17 17 17 17 17 17 17 16 16 16 16 16
18 16 16 17 17 18 19 19 19 17 16 16 17 18 19 19 19 20 20 20 20 20 20 20 19 19 19 19 19 18 18 18 18 17 17 17 17 17 17 17 16 16 16 16
18 17 18 18 19 19 19 19 19 19 17 17 18 18 19 19 19 20 21 20 20 20 20 20 20 19 19 19 19 18 18 18 18 17 17 17 17 17 17 17 16 16 16 16
16 17 18 18 19 19 19 20 19 19 19 18 19 19 19 20 20 20 21 20 20 20 20 20 20 20 19 19 19 19 18 18 18 18 17 17 17 17 17 17 16 16 16 16
16 16 17 16 18 19 18 19 19 19 19 19 19 19 19 19 19 20 21 21 21 21 20 20 20 20 20 20 19 19 19 18 18 18 18 17 17 17 17 17 16 16 16 16
16 15 15 16 17 17 18 19 20 20 20 19 19 19 19 20 21 21 22 21 21 21 21 21 21 21 20 20 20 19 19 18 18 18 18 17 17 17 17 17 17 16 16 16
15 15 14 15 16 17 19 20 20 19 19 19 19 20 20 21 20 20 21 21 22 22 21 21 21 21 20 20 20 19 19 18 18 18 18 18 18 17 17 17 17 16 16 16
15 15 15 14 16 16 18 20 21 20 18 19 19 19 20 20 17 18 21 21 21 21 21 21 21 21 20 20 20 19 19 19 18 18 18 18 18 17 17 17 17 16 16 16
15 14 14 15 15 16 18 20 20 18 18 20 20 20 20 19 19 21 21 21 21 21 21 21 21 20 20 20 20 19 19 19 19 18 18 18 18 18 17 17 17 16 16 16
15 14 14 14 15 16 18 19 18 18 20 20 20 21 21 20 21 21 21 21 21 21 21 21 20 20 20 20 20 19 19 19 19 18 18 18 18 17 17 17 17 16 16 16
15 15 14 15 16 18 19 19 20 20 20 20 20 21 21 20 20 20 20 20 20 21 20 20 20 20 20 20 19 19 19 19 19 18 18 18 18 17 17 17 17 16 16 16
14 15 15 15 16 18 19 20 20 20 20 20 20 20 20 20 20 20 20 20 20 20 20 20 20 19 19 19 19 19 19 19 19 19 18 18 18 17 17 17 16 16 16 16
14 14 14 15 16 17 18 19 19 20 20 20 20 20 20 20 20 20 20 19 19 19 19 19 19 19 19 19 19 19 19 19 18 18 18 18 18 17 17 17 16 16 16 16
13 14 14 14 16 15 17 19 19 19 19 19 19 19 19 19 19 19 19 19 19 19 19 19 18 18 18 18 18 18 18 18 18 18 18 18 17 17 17 16 16 16 15 15
Wind_Speed
1 3 3 6 7 6 4 3 3 4 4 5 5 6 9 10 9 10 9 8 8 8 7 8 9 9 8 7 8 6 6 5 5 4 4 4 3 2 3 4 7 7 7 8
3 4 9 6 5 4 2 2 2 2 4 5 5 5 7 9 10 12 13 11 10 8 7 8 8 8 8 8 8 7 6 5 5 4 3 3 3 2 2 3 6 7 8 8
6 6 5 4 4 3 1 4 4 4 1 2 3 2 4 5 6 8 11 11 11 13 12 10 9 8 9 9 9 8 7 6 5 5 5 4 4 4 3 4 3 5 7 7
4 5 2 3 4 4 3 3 5 5 4 2 3 3 6 6 7 9 10 10 12 12 12 11 10 9 10 9 8 8 7 7 7 7 7 6 4 3 1 1 1 3 6 7
3 3 3 4 4 4 4 3 3 3 3 0 1 3 6 4 7 11 11 12 13 13 14 13 12 11 9 9 9 8 8 7 6 7 8 7 4 3 1 2 3 3 4 6
4 3 3 5 3 4 4 5 6 5 4 2 5 5 6 6 11 11 12 13 13 13 13 12 10 9 8 8 8 8 8 6 6 7 7 7 7 5 4 3 2 2 2 3
2 2 1 3 3 1 6 6 3 3 2 5 4 4 7 9 9 12 13 13 13 13 13 12 11 11 10 10 9 9 9 7 6 6 6 6 7 7 6 5 3 2 2 2
3 4 4 3 5 4 4 8 6 4 4 4 1 4 6 6 6 8 10 11 12 13 13 13 13 12 12 12 11 10 9 7 6 6 6 5 6 5 4 5 4 4 2 2
5 5 3 3 3 7 5 4 6 5 2 2 3 3 5 3 3 5 8 9 12 14 13 14 13 13 12 12 12 12 10 8 7 6 6 5 5 5 5 5 4 3 3 3
6 3 3 2 3 1 6 7 5 4 2 2 3 3 4 4 3 6 9 11 11 12 13 12 12 13 12 12 10 10 10 9 7 6 6 6 6 6 6 5 5 4 3 4
4 4 2 2 5 6 3 3 4 4 4 4 2 6 5 8 7 8 10 11 13 14 14 13 12 11 11 10 10 9 9 8 7 7 6 6 6 6 6 5 5 5 4 5
4 5 3 5 5 6 6 6 7 4 3 4 3 6 5 7 7 8 9 10 11 13 13 13 12 11 10 11 10 10 9 8 7 7 7 6 6 6 6 5 5 5 5 5
6 6 3 2 4 0 3 5 5 5 4 4 4 6 3 2 5 6 8 9 10 11 11 11 11 11 12 12 11 10 10 9 8 7 8 7 7 7 6 6 5 5 6 5
6 5 6 8 7 5 5 6 6 6 4 4 6 6 4 3 5 5 6 8 10 12 12 12 11 12 12 12 11 11 10 10 9 8 8 8 8 8 7 6 6 5 6 6
5 4 5 6 6 6 6 8 8 7 8 8 7 7 8 7 8 8 8 9 10 11 12 13 13 12 11 11 11 11 10 9 10 9 9 9 8 7 7 6 6 5 6 6
3 4 2 2 4 4 4 8 9 8 7 7 6 7 8 6 4 5 7 10 12 13 13 14 14 14 14 14 13 12 11 11 10 10 10 8 8 7 7 7 6 6 6 5
3 4 3 2 2 1 5 8 9 6 5 7 8 9 5 4 6 8 9 10 11 12 13 14 15 15 15 15 14 14 13 11 11 11 10 9 9 8 8 7 7 7 6 6
6 4 3 3 2 5 8 6 6 7 6 7 6 6 7 8 7 6 7 10 10 11 12 12 12 13 12 12 12 12 11 12 12 11 10 10 10 9 8 8 8 7 6 6
8 7 4 4 4 5 6 4 6 6 5 5 6 5 5 5 2 1 4 7 10 10 10 10 11 11 10 11 12 12 11 11 12 12 12 12 11 11 9 9 8 7 6 6
6 6 5 4 5 7 7 5 3 4 4 4 5 6 5 5 3 5 5 5 6 6 7 7 7 7 8 9 11 12 12 12 13 13 13 12 11 12 11 10 8 6 6 6
5 4 6 5 5 6 7 4 3 5 6 4 4 6 6 6 7 5 4 3 5 5 6 7 8 8 9 9 11 12 12 14 14 12 11 11 11 11 10 9 7 7 7 6
7 6 6 5 5 7 4 3 5 6 3 2 3 4 5 4 4 3 4 4 4 5 5 6 7 7 6 8 11 12 12 12 10 10 11 11 11 10 9 9 8 7 8 7
6 7 6 7 7 5 3 5 4 4 3 2 2 3 5 4 3 2 2 3 3 5 6 6 7 6 5 7 10 11 10 9 10 11 12 11 11 9 9 10 9 7 7 7
2 1 3 2 4 3 2 2 2 3 3 2 3 5 6 5 4 3 3 4 4 4 4 5 6 6 4 5 6 8 8 9 11 11 11 10 11 9 8 8 8 8 8 8
4 2 3 3 3 1 0 2 2 1 2 3 3 3 5 7 5 4 4 4 4 4 4 5 6 6 5 4 4 5 7 9 10 10 10 9 9 9 8 7 6 8 8 10
4 5 5 5 5 4 4 3 3 3 3 4 4 3 3 6 6 5 5 4 5 5 5 5 5 5 4 4 4 4 6 8 10 9 9 8 7 8 7 7 4 3 4 7
Wind_Direction
153 86 213 217 200 196 202 182 183 198 182 156 180 189 193 193 185 184 190 188 186 189 187 168 161 157 148 142 139 140 134 130 118 108 102 93 77 50 41 44 57 65 70 81
49 244 233 220 207 205 196 162 148 129 169 167 191 215 205 199 197 188 187 191 186 183 177 166 158 157 154 152 152 147 143 144 140 135 133 131 123 89 61 39 50 59 68 78
193 236 224 198 194 180 185 173 175 174 172 125 128 304 233 225 210 197 193 189 182 182 178 172 164 160 154 158 163 160 154 147 140 131 111 89 67 47 39 35 30 35 61 75
228 245 200 171 204 174 213 199 159 144 118 239 167 235 261 215 208 206 201 191 187 184 178 175 171 165 163 165 162 155 152 143 139 133 125 127 125 127 155 109 56 38 56 71
241 212 173 189 213 172 188 169 135 144 136 271 227 186 273 196 207 216 205 194 191 186 180 180 178 173 167 159 157 155 148 141 137 136 137 133 132 144 133 87 77 52 40 63
230 234 180 185 197 167 133 73 49 53 84 262 224 183 264 213 209 207 202 196 189 184 182 180 175 163 159 154 152 149 146 144 141 137 137 140 146 144 131 120 107 65 36 39
302 287 227 156 128 66 100 94 50 11 2 256 227 181 246 231 206 197 194 193 188 181 177 174 169 166 163 159 158 153 150 152 152 146 148 154 158 155 155 156 150 131 91 64
174 254 225 174 159 168 159 137 153 184 221 276 273 218 259 254 200 184 182 180 177 176 177 177 176 171 168 165 160 157 157 159 160 158 160 162 158 152 154 162 157 155 153 145
170 238 260 195 157 142 138 155 168 147 216 259 281 285 319 19 131 156 162 163 173 179 178 178 175 172 171 169 167 165 164 164 170 169 161 164 163 154 156 157 150 153 160 143
152 193 236 197 91 107 155 153 106 125 166 255 289 253 234 228 195 178 174 176 180 178 179 177 176 175 176 173 169 166 165 170 175 171 168 168 166 161 158 148 148 151 151 133
140 148 228 140 178 185 145 141 127 145 164 165 246 269 228 200 195 189 189 182 179 179 179 177 176 177 174 167 166 166 170 169 171 170 167 163 164 158 152 152 160 156 146 143
146 127 185 231 241 185 170 176 150 157 215 174 184 268 271 192 189 182 186 183 181 179 178 177 174 171 171 171 172 173 174 173 178 172 165 168 160 153 150 158 163 150 142 144
143 122 114 349 333 269 189 188 166 149 146 168 181 260 297 196 186 184 181 181 177 174 173 173 172 175 179 180 180 179 179 178 177 169 163 164 161 159 163 167 162 152 144 139
128 132 165 190 211 202 222 223 186 150 173 209 214 233 261 236 210 205 191 184 178 175 175 177 180 183 185 185 184 183 184 180 174 169 167 170 173 172 172 167 160 159 152 147
121 162 195 217 221 195 213 226 214 197 192 196 223 219 231 225 215 209 195 183 176 178 181 183 185 187 186 185 188 187 185 181 175 171 174 181 178 170 166 163 162 156 152 154
113 153 158 243 237 205 226 229 222 218 202 205 215 237 236 225 204 201 194 181 178 185 189 191 189 189 190 189 190 188 185 182 174 175 181 178 169 165 167 167 160 152 152 148
150 137 134 227 252 143 241 222 214 214 204 190 214 230 223 205 203 195 191 184 183 189 191 192 193 193 194 192 188 187 186 178 176 178 178 175 172 170 171 165 154 156 159 148
154 143 148 173 134 222 241 228 200 205 222 209 207 211 199 202 205 203 191 187 189 189 190 192 192 193 193 189 188 184 176 175 177 178 178 176 173 172 169 164 165 167 158 155
162 153 154 161 190 255 276 245 192 193 235 226 203 210 206 193 144 292 224 192 190 190 187 188 189 188 184 183 181 173 174 176 179 183 183 181 177 174 171 174 175 169 160 161
147 141 149 160 179 222 242 255 212 136 240 259 192 192 188 158 162 243 241 194 190 186 182 181 175 169 175 180 172 171 176 179 188 189 187 181 177 176 180 183 176 164 162 169
146 144 170 179 202 246 250 251 108 152 232 256 191 180 172 175 195 213 205 181 183 182 178 168 161 167 179 173 168 175 179 190 195 186 179 177 179 181 180 174 165 156 159 157
170 169 182 170 193 238 249 142 170 206 211 189 172 166 159 165 166 159 153 159 161 155 153 154 158 170 171 164 168 177 190 195 181 171 173 176 178 178 173 165 163 159 159 161
184 185 182 188 209 232 208 185 196 157 154 171 148 153 139 128 131 134 140 140 146 148 150 151 152 155 155 163 170 182 193 178 168 168 174 176 175 174 170 171 169 162 165 170
250 129 140 199 241 220 170 133 138 152 162 178 149 135 125 129 135 128 123 119 121 132 142 146 142 145 156 167 172 183 180 168 166 171 175 173 172 172 173 174 173 173 176 179
215 158 141 195 232 66 68 158 163 152 112 107 111 121 133 131 129 127 120 125 126 122 123 131 140 148 161 163 159 164 164 162 165 169 172 171 170 169 170 171 177 182 190 189
208 177 167 207 217 178 222 223 176 150 150 149 127 98 102 129 135 125 123 126 125 120 117 121 125 133 142 145 145 148 154 157 158 163 166 166 165 164 164 160 152 149 165 182
Height
1513 1519 1523 1520 1518 1519 1521 1525 1528 1525 1520 1524 1528 1529 1529 1529 1531 1533 1534 1536 1538 1540 1542 1544 1546 1547 1549 1550 1552 1553 1554 1555 1555 1555 1556 1556 1556 1557 1557 1557 1557 1557 1557 1558
1518 1521 1514 1512 1513 1516 1519 1524 1526 1524 1520 1523 1528 1529 1526 1527 1528 1529 1531 1533 1535 1538 1541 1543 1545 1546 1548 1550 1552 1553 1554 1555 1556 1556 1556 1557 1557 1558 1558 1558 1558 1558 1558 1559
1519 1514 1509 1511 1514 1516 1519 1523 1524 1525 1522 1522 1528 1533 1529 1526 1526 1527 1529 1530 1533 1535 1538 1540 1543 1545 1547 1549 1551 1553 1554 1555 1556 1556 1557 1557 1558 1558 1559 1559 1559 1559 1559 1560
1514 1508 1508 1511 1513 1515 1522 1515 1517 1521 1530 1536 1531 1546 1531 1525 1525 1525 1526 1528 1530 1533 1535 1538 1541 1543 1546 1548 1550 1552 1554 1555 1556 1557 1557 1557 1558 1558 1559 1559 1560 1560 1560 1560
1513 1507 1508 1512 1511 1510 1515 1511 1515 1520 1528 1535 1533 1541 1534 1524 1525 1522 1522 1524 1526 1529 1532 1536 1539 1542 1545 1547 1549 1552 1553 1555 1556 1557 1557 1558 1558 1559 1559 1560 1561 1561 1561 1561
1508 1505 1505 1507 1506 1507 1509 1515 1520 1526 1533 1544 1534 1539 1536 1524 1517 1515 1517 1520 1522 1526 1530 1534 1537 1541 1544 1546 1549 1551 1553 1554 1555 1556 1557 1558 1559 1559 1560 1561 1561 1561 1562 1562
1511 1506 1504 1504 1508 1509 1512 1529 1545 1546 1550 1546 1528 1532 1528 1510 1506 1508 1511 1515 1519 1523 1527 1531 1535 1538 1542 1544 1547 1550 1552 1553 1555 1556 1557 1558 1559 1560 1560 1561 1562 1562 1562 1563
1521 1521 1506 1503 1507 1513 1515 1525 1545 1553 1552 1543 1528 1531 1518 1503 1502 1504 1507 1511 1516 1520 1524 1528 1532 1536 1539 1542 1545 1548 1550 1553 1554 1556 1557 1558 1559 1560 1561 1562 1562 1563 1563 1564
1519 1519 1503 1501 1502 1506 1516 1523 1524 1536 1537 1542 1535 1524 1511 1503 1503 1504 1507 1511 1514 1517 1521 1526 1530 1534 1537 1540 1544 1547 1549 1552 1554 1555 1557 1558 1559 1560 1561 1562 1563 1563 1564 1565
1507 1515 1506 1502 1502 1504 1508 1514 1527 1536 1545 1549 1537 1528 1523 1510 1507 1505 1507 1509 1512 1515 1519 1523 1527 1531 1535 1539 1542 1546 1548 1551 1553 1554 1556 1557 1559 1560 1561 1562 1563 1564 1565 1565
1502 1513 1512 1507 1509 1511 1511 1515 1522 1532 1536 1546 1545 1533 1506 1505 1503 1504 1505 1507 1510 1513 1517 1521 1525 1530 1534 1537 1541 1544 1547 1549 1551 1553 1555 1557 1559 1560 1561 1562 1563 1564 1565 1566
1501 1512 1519 1511 1503 1501 1505 1510 1519 1533 1534 1535 1540 1530 1498 1499 1500 1501 1503 1505 1508 1511 1514 1519 1523 1527 1532 1535 1538 1542 1545 1547 1550 1552 1554 1556 1558 1559 1561 1562 1563 1564 1565 1566
1498 1511 1523 1522 1516 1506 1506 1506 1510 1519 1527 1533 1537 1526 1499 1499 1500 1500 1502 1504 1507 1510 1513 1517 1521 1525 1528 1532 1536 1539 1542 1545 1548 1551 1553 1555 1557 1558 1560 1561 1563 1564 1565 1566
1493 1506 1516 1522 1516 1509 1508 1505 1506 1515 1526 1528 1524 1515 1503 1500 1500 1499 1500 1502 1504 1507 1511 1514 1518 1522 1525 1529 1533 1536 1540 1543 1546 1549 1551 1553 1555 1557 1559 1560 1562 1563 1564 1566
1492 1503 1503 1502 1499 1499 1501 1502 1502 1507 1511 1518 1513 1509 1502 1498 1497 1497 1498 1500 1503 1506 1509 1512 1515 1518 1522 1526 1530 1533 1536 1540 1543 1546 1549 1551 1554 1556 1557 1559 1561 1562 1564 1565
1492 1499 1500 1500 1496 1496 1498 1497 1498 1499 1501 1504 1504 1503 1494 1493 1495 1495 1496 1498 1500 1503 1506 1509 1512 1515 1518 1522 1525 1529 1533 1537 1540 1544 1546 1549 1552 1554 1556 1558 1560 1561 1563 1564
1494 1499 1505 1508 1499 1499 1504 1494 1494 1495 1493 1496 1500 1496 1491 1492 1492 1493 1493 1495 1497 1499 1502 1506 1508 1511 1514 1518 1521 1525 1529 1533 1537 1540 1544 1546 1549 1552 1554 1556 1558 1560 1562 1563
1492 1498 1506 1508 1505 1514 1498 1484 1485 1488 1488 1487 1487 1487 1487 1488 1489 1490 1491 1492 1494 1496 1499 1502 1505 1508 1511 1515 1518 1522 1526 1530 1533 1537 1540 1543 1546 1549 1552 1554 1556 1558 1560 1562
1484 1494 1505 1509 1511 1504 1490 1482 1482 1486 1488 1483 1484 1484 1484 1486 1488 1489 1490 1490 1492 1493 1495 1498 1501 1504 1508 1512 1515 1519 1523 1526 1530 1533 1536 1540 1543 1546 1549 1551 1553 1556 1558 1560
1482 1487 1499 1506 1508 1509 1491 1478 1476 1481 1489 1480 1480 1481 1483 1484 1491 1490 1488 1488 1490 1492 1494 1496 1499 1502 1505 1508 1512 1516 1519 1522 1525 1529 1533 1537 1540 1543 1546 1548 1551 1553 1556 1558
1488 1492 1497 1502 1503 1495 1480 1475 1476 1492 1490 1478 1478 1478 1480 1481 1484 1485 1485 1486 1488 1490 1492 1494 1496 1499 1502 1505 1509 1512 1515 1518 1521 1525 1529 1533 1537 1540 1543 1546 1548 1551 1553 1555
1484 1490 1494 1497 1501 1495 1473 1475 1479 1480 1476 1476 1475 1476 1477 1479 1480 1482 1483 1484 1486 1488 1490 1492 1494 1496 1499 1502 1505 1508 1511 1514 1519 1522 1526 1530 1533 1537 1540 1543 1545 1548 1550 1553
1477 1478 1481 1483 1484 1473 1471 1471 1472 1473 1474 1475 1475 1475 1476 1477 1479 1480 1481 1483 1484 1485 1487 1489 1492 1494 1497 1499 1502 1505 1508 1512 1515 1519 1522 1526 1530 1533 1536 1539 1542 1545 1547 1549
1472 1471 1474 1476 1473 1470 1470 1470 1472 1473 1474 1474 1474 1475 1476 1476 1477 1479 1479 1481 1482 1484 1486 1488 1490 1492 1495 1497 1499 1502 1505 1509 1512 1515 1519 1522 1526 1529 1532 1536 1538 1541 1543 1545
1470 1470 1472 1474 1471 1469 1469 1470 1472 1472 1472 1473 1474 1474 1475 1476 1477 1478 1479 1480 1481 1483 1485 1486 1488 1490 1493 1495 1497 1500 1503 1506 1508 1512 1515 1519 1522 1525 1529 1532 1534 1537 1540 1542
1466 1467 1471 1472 1468 1469 1469 1470 1470 1471 1472 1472 1473 1473 1474 1475 1476 1477 1478 1480 1481 1482 1484 1486 1487 1489 1491 1493 1495 1498 1501 1504 1506 1509 1512 1516 1519 1522 1525 1528 1531 1534 1537 1539